ETH122 FBSK-FYWH

Flight info

Callsign ETH122
Flight time 1h 21m
Altitude 40000
Route TESOS1B UVLUK UL435 AVULA UT916 UTSET UN182 AXODO AXODO1A
Aircraft A35K/H-SDE2E3GHIJ3J4J5LM1ORWXY/LB1D1

Departure

Time 2026-04-28 07:21
Airport Sir Seretse Khama International Airport (FBSK)

Arrival

Time 2026-04-28 08:42
Airport Hosea Kutako International Airport (FYWH)
Time Latitude Longitude Altitude Speed Heading
2026-04-28 06:56 -24.55564 25.92477 3299 ft 0 kts 152°
2026-04-28 07:00 -24.55563 25.92477 3299 ft 0 kts 152°
2026-04-28 07:11 -24.55562 25.92476 3299 ft 1 kts 152°
2026-04-28 07:12 -24.55555 25.92472 3299 ft 1 kts 168°
2026-04-28 07:12 -24.55547 25.92471 3299 ft 1 kts 190°
2026-04-28 07:12 -24.55540 25.92474 3299 ft 1 kts 212°
2026-04-28 07:12 -24.55533 25.92479 3299 ft 1 kts 234°
2026-04-28 07:13 -24.55531 25.92482 3299 ft 0 kts 244°
2026-04-28 07:14 -24.55532 25.92479 3299 ft 1 kts 244°
2026-04-28 07:14 -24.55540 25.92457 3299 ft 8 kts 254°
2026-04-28 07:15 -24.55514 25.92384 3300 ft 9 kts 324°
2026-04-28 07:15 -24.55473 25.92397 3300 ft 10 kts 41°
2026-04-28 07:15 -24.55408 25.92505 3299 ft 20 kts 60°
2026-04-28 07:15 -24.55339 25.92646 3298 ft 22 kts 62°
2026-04-28 07:16 -24.55263 25.92799 3297 ft 24 kts 61°
2026-04-28 07:16 -24.55182 25.92963 3297 ft 25 kts 61°
2026-04-28 07:16 -24.55097 25.93135 3296 ft 26 kts 62°
2026-04-28 07:16 -24.55008 25.93316 3296 ft 27 kts 61°
2026-04-28 07:17 -24.54916 25.93501 3295 ft 29 kts 61°
2026-04-28 07:17 -24.54829 25.93676 3294 ft 23 kts 62°
2026-04-28 07:17 -24.54752 25.93834 3293 ft 24 kts 62°
2026-04-28 07:17 -24.54669 25.94002 3292 ft 25 kts 62°
2026-04-28 07:18 -24.54556 25.94061 3291 ft 20 kts 337°
2026-04-28 07:18 -24.54486 25.93956 3290 ft 18 kts 256°
2026-04-28 07:18 -24.54509 25.93901 3290 ft 0 kts 242°
2026-04-28 07:18 -24.54513 25.93892 3290 ft 2 kts 242°
2026-04-28 07:19 -24.54523 25.93872 3290 ft 4 kts 242°
2026-04-28 07:19 -24.54534 25.93850 3290 ft 0 kts 242°
2026-04-28 07:20 -24.54537 25.93844 3290 ft 2 kts 242°
2026-04-28 07:20 -24.54620 25.93675 3291 ft 58 kts 241°
2026-04-28 07:20 -24.54919 25.93075 3297 ft 119 kts 241°
2026-04-28 07:20 -24.55396 25.92115 3309 ft 169 kts 241°
2026-04-28 07:21 -24.55964 25.91022 4120 ft 155 kts 239°
2026-04-28 07:21 -24.56590 25.90002 4539 ft 172 kts 243°
2026-04-28 07:21 -24.56581 25.88612 4785 ft 199 kts 286°
2026-04-28 07:22 -24.55708 25.85384 5585 ft 237 kts 279°
2026-04-28 07:22 -24.55416 25.83526 6024 ft 257 kts 276°
2026-04-28 07:22 -24.55188 25.81557 6806 ft 261 kts 274°
2026-04-28 07:22 -24.54997 25.79591 7700 ft 262 kts 274°
2026-04-28 07:23 -24.54821 25.77600 8676 ft 262 kts 274°
2026-04-28 07:23 -24.54651 25.75607 9724 ft 262 kts 274°
2026-04-28 07:23 -24.54487 25.73600 10634 ft 268 kts 274°
2026-04-28 07:23 -24.54314 25.71482 11046 ft 290 kts 274°
2026-04-28 07:24 -24.54129 25.69186 11368 ft 313 kts 274°
2026-04-28 07:24 -24.53858 25.66745 11802 ft 330 kts 278°
2026-04-28 07:24 -24.53443 25.64225 12466 ft 338 kts 279°
2026-04-28 07:24 -24.52998 25.61662 13199 ft 345 kts 279°
2026-04-28 07:25 -24.52547 25.59055 13900 ft 350 kts 279°
2026-04-28 07:25 -24.52088 25.56403 14557 ft 354 kts 279°
2026-04-28 07:25 -24.51627 25.53736 15294 ft 355 kts 279°
2026-04-28 07:25 -24.51167 25.51069 16016 ft 356 kts 279°
2026-04-28 07:26 -24.50705 25.48392 16719 ft 357 kts 279°
2026-04-28 07:26 -24.50246 25.45735 17388 ft 360 kts 279°
2026-04-28 07:26 -24.49777 25.43026 18070 ft 362 kts 279°
2026-04-28 07:26 -24.49306 25.40304 18722 ft 364 kts 279°
2026-04-28 07:27 -24.48832 25.37564 19278 ft 366 kts 279°
2026-04-28 07:27 -24.48355 25.34807 19858 ft 369 kts 279°
2026-04-28 07:27 -24.47873 25.32035 20476 ft 371 kts 279°
2026-04-28 07:27 -24.47389 25.29245 21087 ft 374 kts 279°
2026-04-28 07:28 -24.46900 25.26434 21709 ft 376 kts 279°
2026-04-28 07:28 -24.46407 25.23608 22332 ft 379 kts 279°
2026-04-28 07:28 -24.45814 25.20782 22957 ft 382 kts 284°
2026-04-28 07:28 -24.44843 25.18048 23572 ft 388 kts 293°
2026-04-28 07:29 -24.43567 25.15449 24123 ft 392 kts 296°
2026-04-28 07:29 -24.42211 25.12840 24669 ft 394 kts 296°
2026-04-28 07:29 -24.40845 25.10216 25234 ft 397 kts 296°
2026-04-28 07:29 -24.39478 25.07582 25792 ft 399 kts 296°
2026-04-28 07:30 -24.38102 25.04926 26369 ft 401 kts 296°
2026-04-28 07:30 -24.36720 25.02256 26928 ft 404 kts 296°
2026-04-28 07:30 -24.35329 24.99566 27490 ft 406 kts 296°
2026-04-28 07:30 -24.33926 24.96854 28038 ft 409 kts 296°
2026-04-28 07:31 -24.32517 24.94131 28571 ft 412 kts 296°
2026-04-28 07:31 -24.31100 24.91395 29107 ft 414 kts 296°
2026-04-28 07:31 -24.29671 24.88636 29627 ft 417 kts 296°
2026-04-28 07:31 -24.28235 24.85864 30131 ft 420 kts 296°
2026-04-28 07:32 -24.26803 24.83103 30558 ft 423 kts 296°
2026-04-28 07:32 -24.25342 24.80286 30954 ft 426 kts 297°
2026-04-28 07:32 -24.23872 24.77456 31350 ft 428 kts 297°
2026-04-28 07:32 -24.22393 24.74608 31756 ft 431 kts 297°
2026-04-28 07:33 -24.20909 24.71748 32158 ft 433 kts 297°
2026-04-28 07:33 -24.19566 24.68791 32523 ft 434 kts 292°
2026-04-28 07:33 -24.18373 24.65741 32890 ft 436 kts 291°
2026-04-28 07:33 -24.17233 24.62659 33244 ft 438 kts 290°
2026-04-28 07:34 -24.16112 24.59550 33580 ft 440 kts 290°
2026-04-28 07:34 -24.14990 24.56422 33922 ft 442 kts 290°
2026-04-28 07:34 -24.13875 24.53331 34341 ft 441 kts 290°
2026-04-28 07:34 -24.12742 24.50210 34762 ft 440 kts 290°
2026-04-28 07:35 -24.11607 24.47103 35133 ft 439 kts 290°
2026-04-28 07:35 -24.10469 24.44000 35509 ft 439 kts 290°
2026-04-28 07:35 -24.09330 24.40905 35887 ft 438 kts 290°
2026-04-28 07:35 -24.08190 24.37811 36248 ft 438 kts 290°
2026-04-28 07:36 -24.07053 24.34726 36604 ft 437 kts 290°
2026-04-28 07:36 -24.05913 24.31637 36959 ft 437 kts 290°
2026-04-28 07:36 -24.04775 24.28552 37296 ft 437 kts 290°
2026-04-28 07:36 -24.03638 24.25474 37645 ft 436 kts 290°
2026-04-28 07:37 -24.02500 24.22393 37991 ft 436 kts 290°
2026-04-28 07:37 -24.01374 24.19349 38324 ft 435 kts 290°
2026-04-28 07:37 -24.00240 24.16281 38632 ft 435 kts 290°
2026-04-28 07:37 -23.99106 24.13219 38926 ft 434 kts 290°
2026-04-28 07:38 -23.97973 24.10161 39188 ft 434 kts 290°
2026-04-28 07:38 -23.96925 24.07075 39406 ft 433 kts 283°
2026-04-28 07:38 -23.96583 24.03819 39621 ft 433 kts 268°
2026-04-28 07:38 -23.97143 24.00574 39815 ft 439 kts 253°
2026-04-28 07:39 -23.98575 23.97596 39996 ft 449 kts 238°
2026-04-28 07:39 -24.00749 23.95154 40143 ft 462 kts 223°
2026-04-28 07:39 -24.03556 23.93384 40172 ft 474 kts 208°
2026-04-28 07:39 -24.06778 23.92410 40176 ft 484 kts 197°
2026-04-28 07:40 -24.13226 23.90490 40186 ft 472 kts 212°
2026-04-28 07:40 -24.16012 23.88686 40185 ft 460 kts 224°
2026-04-28 07:40 -24.18310 23.86328 40186 ft 449 kts 236°
2026-04-28 07:41 -24.20988 23.81585 40181 ft 437 kts 252°
2026-04-28 07:41 -24.22433 23.75206 40188 ft 430 kts 268°
2026-04-28 07:42 -24.22097 23.68716 40182 ft 427 kts 282°
2026-04-28 07:42 -24.20084 23.62594 40185 ft 429 kts 297°
2026-04-28 07:43 -24.16535 23.57317 40184 ft 435 kts 310°
2026-04-28 07:43 -24.12349 23.52567 40186 ft 435 kts 307°
2026-04-28 07:44 -24.09025 23.47115 40185 ft 429 kts 294°
2026-04-28 07:44 -24.07046 23.40963 40184 ft 428 kts 286°
2026-04-28 07:45 -24.05457 23.34679 40191 ft 429 kts 285°
2026-04-28 07:45 -24.03913 23.28391 40185 ft 429 kts 285°
2026-04-28 07:46 -24.02333 23.22082 40187 ft 429 kts 285°
2026-04-28 07:46 -24.00737 23.15798 40185 ft 429 kts 285°
2026-04-28 07:47 -23.99144 23.09557 40183 ft 429 kts 285°
2026-04-28 07:47 -23.97539 23.03280 40193 ft 429 kts 285°
2026-04-28 07:48 -23.95930 22.96993 40186 ft 429 kts 285°
2026-04-28 07:48 -23.94318 22.90704 40184 ft 429 kts 285°
2026-04-28 07:49 -23.92705 22.84425 40186 ft 429 kts 285°
2026-04-28 07:49 -23.91099 22.78182 40191 ft 429 kts 285°
2026-04-28 07:50 -23.89477 22.71881 40198 ft 429 kts 285°
2026-04-28 07:50 -23.87859 22.65601 40201 ft 429 kts 285°
2026-04-28 07:51 -23.86236 22.59313 40192 ft 429 kts 285°
2026-04-28 07:51 -23.84622 22.53075 40189 ft 430 kts 285°
2026-04-28 07:52 -23.82992 22.46788 40195 ft 430 kts 285°
2026-04-28 07:52 -23.81361 22.40502 40197 ft 430 kts 285°
2026-04-28 07:53 -23.79729 22.34231 40189 ft 430 kts 285°
2026-04-28 07:53 -23.78092 22.27947 40194 ft 430 kts 285°
2026-04-28 07:54 -23.76462 22.21704 40193 ft 430 kts 285°
2026-04-28 07:54 -23.74819 22.15421 40193 ft 430 kts 286°
2026-04-28 07:55 -23.73174 22.09139 40191 ft 430 kts 286°
2026-04-28 07:55 -23.71527 22.02866 40194 ft 430 kts 286°
2026-04-28 07:56 -23.69878 21.96593 40190 ft 430 kts 286°
2026-04-28 07:56 -23.68236 21.90361 40186 ft 430 kts 286°
2026-04-28 07:57 -23.66581 21.84087 40189 ft 430 kts 286°
2026-04-28 07:57 -23.64921 21.77807 40187 ft 430 kts 286°
2026-04-28 07:58 -23.63260 21.71535 40191 ft 430 kts 286°
2026-04-28 07:58 -23.61593 21.65248 40190 ft 431 kts 286°
2026-04-28 07:59 -23.59937 21.59018 40184 ft 431 kts 286°
2026-04-28 07:59 -23.58266 21.52741 40182 ft 431 kts 286°
2026-04-28 08:00 -23.56594 21.46469 40180 ft 431 kts 286°
2026-04-28 08:00 -23.54917 21.40192 40178 ft 431 kts 286°
2026-04-28 08:01 -23.53239 21.33923 40178 ft 431 kts 286°
2026-04-28 08:01 -23.51569 21.27692 40179 ft 431 kts 286°
2026-04-28 08:02 -23.49885 21.21422 40177 ft 431 kts 286°
2026-04-28 08:02 -23.48201 21.15160 40176 ft 431 kts 286°
2026-04-28 08:03 -23.46512 21.08892 40177 ft 431 kts 286°
2026-04-28 08:03 -23.44822 21.02632 40178 ft 431 kts 286°
2026-04-28 08:04 -23.43130 20.96375 40173 ft 431 kts 286°
2026-04-28 08:04 -23.41444 20.90151 40170 ft 431 kts 286°
2026-04-28 08:05 -23.39743 20.83883 40167 ft 431 kts 286°
2026-04-28 08:05 -23.38040 20.77618 40166 ft 431 kts 286°
2026-04-28 08:06 -23.36337 20.71362 40163 ft 431 kts 286°
2026-04-28 08:06 -23.34631 20.65109 40162 ft 431 kts 286°
2026-04-28 08:07 -23.32921 20.58850 40159 ft 431 kts 286°
2026-04-28 08:07 -23.31220 20.52634 40156 ft 431 kts 286°
2026-04-28 08:08 -23.29505 20.46378 40154 ft 431 kts 286°
2026-04-28 08:08 -23.27788 20.40124 40152 ft 431 kts 286°
2026-04-28 08:09 -23.26069 20.33877 40150 ft 431 kts 286°
2026-04-28 08:09 -23.24343 20.27614 40146 ft 431 kts 286°
2026-04-28 08:10 -23.22620 20.21371 40147 ft 431 kts 286°
2026-04-28 08:10 -23.20904 20.15163 40144 ft 432 kts 286°
2026-04-28 08:11 -23.19172 20.08911 40138 ft 432 kts 286°
2026-04-28 08:11 -23.17440 20.02665 40138 ft 432 kts 287°
2026-04-28 08:12 -23.15734 19.96409 40134 ft 432 kts 285°
2026-04-28 08:12 -23.14090 19.90125 40134 ft 432 kts 285°
2026-04-28 08:13 -23.12436 19.83848 40133 ft 432 kts 286°
2026-04-28 08:13 -23.10774 19.77569 40129 ft 432 kts 286°
2026-04-28 08:14 -23.09123 19.71346 40129 ft 432 kts 286°
2026-04-28 08:14 -23.07456 19.65076 40128 ft 432 kts 286°
2026-04-28 08:15 -23.05786 19.58804 40132 ft 432 kts 286°
2026-04-28 08:15 -23.04113 19.52531 40130 ft 432 kts 286°
2026-04-28 08:16 -23.02437 19.46258 40129 ft 432 kts 286°
2026-04-28 08:16 -23.00760 19.39994 40128 ft 433 kts 286°
2026-04-28 08:17 -22.99078 19.33721 40133 ft 433 kts 286°
2026-04-28 08:17 -22.97392 19.27443 40132 ft 433 kts 286°
2026-04-28 08:18 -22.95704 19.21170 40132 ft 433 kts 286°
2026-04-28 08:18 -22.94023 19.14936 40131 ft 433 kts 286°
2026-04-28 08:19 -22.92331 19.08666 40136 ft 433 kts 286°
2026-04-28 08:19 -22.90636 19.02399 40131 ft 433 kts 286°
2026-04-28 08:20 -22.88938 18.96130 40130 ft 433 kts 286°
2026-04-28 08:20 -22.87235 18.89857 40133 ft 433 kts 286°
2026-04-28 08:21 -22.85530 18.83584 40133 ft 433 kts 286°
2026-04-28 08:21 -22.83823 18.77314 40130 ft 433 kts 286°
2026-04-28 08:22 -22.82117 18.71060 39952 ft 429 kts 286°
2026-04-28 08:22 -22.81281 18.67997 39146 ft 421 kts 286°
2026-04-28 08:22 -22.80446 18.64942 37699 ft 424 kts 287°
2026-04-28 08:23 -22.79604 18.61859 36206 ft 428 kts 287°
2026-04-28 08:23 -22.78769 18.58807 35499 ft 415 kts 287°
2026-04-28 08:23 -22.77964 18.55870 34907 ft 415 kts 287°
2026-04-28 08:23 -22.77134 18.52844 34166 ft 421 kts 288°
2026-04-28 08:24 -22.76294 18.49784 33326 ft 425 kts 288°
2026-04-28 08:24 -22.75447 18.46705 32541 ft 428 kts 288°
2026-04-28 08:24 -22.74595 18.43606 31773 ft 431 kts 288°
2026-04-28 08:24 -22.73740 18.40497 31208 ft 429 kts 288°
2026-04-28 08:25 -22.72889 18.37408 30636 ft 427 kts 288°
2026-04-28 08:25 -22.72043 18.34334 30039 ft 426 kts 288°
2026-04-28 08:25 -22.71193 18.31264 29432 ft 423 kts 288°
2026-04-28 08:26 -22.69376 18.25295 28313 ft 417 kts 289°
2026-04-28 08:26 -22.68460 18.22322 27731 ft 414 kts 289°
2026-04-28 08:26 -22.67552 18.19362 27186 ft 412 kts 289°
2026-04-28 08:26 -22.66658 18.16436 26640 ft 410 kts 289°
2026-04-28 08:27 -22.65766 18.13513 26072 ft 408 kts 288°
2026-04-28 08:27 -22.64878 18.10604 25517 ft 407 kts 288°
2026-04-28 08:27 -22.63991 18.07695 24962 ft 406 kts 288°
2026-04-28 08:27 -22.63104 18.04789 24403 ft 405 kts 288°
2026-04-28 08:28 -22.62219 18.01891 23834 ft 405 kts 288°
2026-04-28 08:28 -22.61335 17.98997 23197 ft 405 kts 288°
2026-04-28 08:28 -22.60453 17.96108 22609 ft 403 kts 288°
2026-04-28 08:28 -22.59870 17.94199 22228 ft 402 kts 288°
2026-04-28 08:29 -22.58993 17.91333 21657 ft 400 kts 289°
2026-04-28 08:29 -22.58118 17.88472 21074 ft 399 kts 289°
2026-04-28 08:29 -22.57244 17.85623 20490 ft 398 kts 289°
2026-04-28 08:29 -22.56374 17.82785 19929 ft 396 kts 289°
2026-04-28 08:30 -22.55506 17.79956 19341 ft 395 kts 289°
2026-04-28 08:30 -22.54638 17.77130 18762 ft 394 kts 289°
2026-04-28 08:30 -22.53774 17.74319 18131 ft 393 kts 289°
2026-04-28 08:30 -22.53006 17.71524 17527 ft 392 kts 283°
2026-04-28 08:31 -22.52842 17.68598 16963 ft 391 kts 265°
2026-04-28 08:31 -22.53564 17.65817 16799 ft 381 kts 248°
2026-04-28 08:31 -22.54717 17.63298 16696 ft 367 kts 244°
2026-04-28 08:31 -22.55894 17.60903 16597 ft 352 kts 244°
2026-04-28 08:32 -22.57021 17.58606 16470 ft 340 kts 244°
2026-04-28 08:32 -22.58109 17.56375 16323 ft 329 kts 245°
2026-04-28 08:32 -22.59159 17.54213 16095 ft 321 kts 245°
2026-04-28 08:32 -22.60187 17.52089 15754 ft 318 kts 245°
2026-04-28 08:33 -22.61208 17.49976 15387 ft 315 kts 245°
2026-04-28 08:33 -22.62215 17.47892 14846 ft 309 kts 245°
2026-04-28 08:33 -22.63204 17.45849 14244 ft 304 kts 244°
2026-04-28 08:33 -22.64159 17.43869 13771 ft 298 kts 245°
2026-04-28 08:34 -22.65110 17.41886 13465 ft 292 kts 245°
2026-04-28 08:34 -22.66021 17.39990 13235 ft 275 kts 245°
2026-04-28 08:34 -22.66878 17.38206 12992 ft 260 kts 245°
2026-04-28 08:34 -22.67695 17.36504 12708 ft 249 kts 245°
2026-04-28 08:35 -22.68481 17.34858 12545 ft 240 kts 246°
2026-04-28 08:35 -22.69054 17.33208 12332 ft 231 kts 262°
2026-04-28 08:35 -22.69008 17.31525 11930 ft 223 kts 287°
2026-04-28 08:35 -22.68376 17.30008 11584 ft 221 kts 300°
2026-04-28 08:36 -22.67597 17.28563 11511 ft 222 kts 301°
2026-04-28 08:36 -22.66755 17.27170 11479 ft 221 kts 310°
2026-04-28 08:36 -22.65513 17.26219 11306 ft 221 kts 340°
2026-04-28 08:36 -22.64025 17.25903 10971 ft 221 kts 352°
2026-04-28 08:37 -22.62491 17.25742 10598 ft 222 kts 353°
2026-04-28 08:37 -22.60987 17.25593 10397 ft 210 kts 353°
2026-04-28 08:37 -22.59585 17.25483 10208 ft 197 kts 358°
2026-04-28 08:37 -22.58259 17.25808 9753 ft 199 kts 25°
2026-04-28 08:38 -22.57256 17.26851 9234 ft 204 kts 56°
2026-04-28 08:38 -22.56596 17.28212 8916 ft 205 kts 62°
2026-04-28 08:38 -22.55989 17.29602 8674 ft 204 kts 62°
2026-04-28 08:38 -22.55386 17.30964 8436 ft 201 kts 62°
2026-04-28 08:39 -22.54793 17.32284 8307 ft 188 kts 62°
2026-04-28 08:39 -22.54250 17.33501 8118 ft 171 kts 61°
2026-04-28 08:39 -22.53732 17.34627 7799 ft 166 kts 61°
2026-04-28 08:39 -22.53223 17.35729 7495 ft 161 kts 61°
2026-04-28 08:40 -22.52733 17.36790 7258 ft 154 kts 61°
2026-04-28 08:40 -22.52262 17.37810 7144 ft 152 kts 62°
2026-04-28 08:40 -22.51798 17.38844 7025 ft 153 kts 62°
2026-04-28 08:40 -22.51318 17.39873 6846 ft 153 kts 62°
2026-04-28 08:41 -22.50841 17.40904 6640 ft 151 kts 63°
2026-04-28 08:41 -22.50369 17.41918 6427 ft 151 kts 64°
2026-04-28 08:41 -22.49903 17.42935 6169 ft 151 kts 65°
2026-04-28 08:41 -22.49437 17.43952 5960 ft 152 kts 64°
2026-04-28 08:42 -22.48966 17.44976 5699 ft 151 kts 65°
2026-04-28 08:42 -22.48517 17.45956 5623 ft 128 kts 63°
2026-04-28 08:42 -22.48248 17.46537 5603 ft 53 kts 63°
2026-04-28 08:42 -22.48096 17.46870 5595 ft 45 kts 64°
2026-04-28 08:43 -22.48028 17.47015 5588 ft 8 kts 63°
2026-04-28 08:43 -22.48004 17.47076 5586 ft 9 kts 81°
2026-04-28 08:43 -22.48033 17.47134 5586 ft 10 kts 141°
2026-04-28 08:43 -22.48088 17.47133 5584 ft 8 kts 214°
2026-04-28 08:44 -22.48123 17.47073 5586 ft 11 kts 242°
2026-04-28 08:44 -22.48161 17.46995 5585 ft 12 kts 243°
2026-04-28 08:44 -22.48196 17.46917 5586 ft 11 kts 244°
2026-04-28 08:44 -22.48229 17.46845 5598 ft 10 kts 243°
2026-04-28 08:45 -22.48259 17.46780 5604 ft 9 kts 244°
2026-04-28 08:45 -22.48305 17.46678 5606 ft 16 kts 243°
2026-04-28 08:45 -22.48355 17.46571 5609 ft 15 kts 243°
2026-04-28 08:45 -22.48401 17.46471 5612 ft 14 kts 243°
2026-04-28 08:46 -22.48468 17.46432 5613 ft 10 kts 174°
2026-04-28 08:46 -22.48531 17.46462 5613 ft 11 kts 155°
2026-04-28 08:46 -22.48540 17.46467 5614 ft 0 kts 155°